TERRA

Last updated on Wed Sep 17 2025 00:02:15 GMT+0000 (Coordinated Universal Time)

1 25994U 99068A 25259.62185815 .00000402 00000+0 91381-4 0 9991 2 25994 97.9888 314.4386 0002859 43.1473 75.2523 14.60799216369664
UTC large
Height (km)
Speed (km/s)
/
Latitude / Longitude
Inclination (degrees)
Orbital Period (minutes)
Azimuth
Elevation
Range (km)
Doppler Factor

Next 0 passes for location: London (51.5072 / 0.1276)

Sorry there are no passes over London.